Weather History for Bradford, PA

Change the Weather History Date:

Thursday, March 20, 2014

  Actual Average Record
Temperature  
Mean Temperature 34 °F 33 °F  
Max Temperature 40 °F 43 °F 71 °F (2012)
Min Temperature 28 °F 23 °F 6 °F (1986)
Degree Days  
Heating Degree Days 31 26  
Month to date heating degree days 773 595  
Since 1 July heating degree days 6439 6165  
Cooling Degree Days 0 0  
Month to date cooling degree days 0 0  
Year to date cooling degree days 0 0  
Moisture  
Dew Point 26 °F    
Average Humidity 79    
Maximum Humidity 89    
Minimum Humidity 69    
Precipitation  
Precipitation 0.12 in 0.12 in 0.90 in (2004)
Month to date precipitation 1.30 2.06  
Year to date precipitation 4.83 7.70  
Sea Level Pressure  
Sea Level Pressure 29.81 in    
Wind  
Wind Speed 12 mph (West)    
Max Wind Speed 25 mph    
Max Gust Speed 35 mph    
Visibility 4 miles    
Events Fog , Rain , Snow    
T = Trace of Precipitation, MM = Missing Value Source: NWS Daily Summary

Daily Weather History Graph

Daily Weather History Graph

Search for Another Location

Airport:

Trip Planner

Search our weather history database for the weather conditions in past years. The results will help you decide how hot, cold, wet, or windy it might be!

Date:

Astronomy

Mar. 20, 2014 Rise Set
Actual Time 7:17 AM EDT 7:26 PM EDT
Civil Twilight 6:50 AM EDT 7:54 PM EDT
Nautical Twilight 6:17 AM EDT 8:27 PM EDT
Astronomical Twilight 5:44 AM EDT 9:00 PM EDT
Moon 11:48 PM EDT (3/20) 9:19 AM EDT (3/20)
Length of Visible Light 13h 04m
Length of Day
12h 08m
Waning Gibbous, 84% of the Moon is Illuminated
Mar 20
Waning Gibbous
Mar 23
Last Quarter
Mar 30
New
Apr 7
First Quarter
Apr 15
Full

Hourly Weather History & Observations

Time (EDT) Temp. Windchill Dew Point Humidity Pressure Visibility Wind Dir Wind Speed Gust Speed Precip Events Conditions
12:07 AM 39.0 °F 34.8 °F 36.0 °F 89% 29.69 in 6.0 mi SSW 5.8 mph - 0.01 in Rain Light Rain
12:14 AM 37.9 °F 33.5 °F 36.0 °F 93% 29.69 in 5.0 mi SSW 5.8 mph - 0.02 in Rain Light Rain
12:49 AM 39.2 °F 33.6 °F 37.4 °F 93% 29.67 in 9.0 mi WSW 8.1 mph - 0.02 in   Overcast
12:53 AM 39.9 °F 34.5 °F 37.0 °F 89% 29.70 in 9.0 mi WSW 8.1 mph - 0.02 in   Overcast
1:13 AM 39.9 °F 34.5 °F 37.0 °F 89% 29.69 in 4.0 mi WSW 8.1 mph - 0.01 in Rain Light Rain
1:23 AM 39.9 °F 32.1 °F 37.0 °F 89% 29.69 in 2.0 mi West 13.8 mph 20.7 mph 0.05 in Rain Heavy Rain
1:36 AM 39.0 °F 31.0 °F 35.1 °F 86% 29.69 in 4.0 mi West 13.8 mph 29.9 mph 0.08 in Rain Light Rain
1:53 AM 37.9 °F 30.5 °F 35.1 °F 89% 29.73 in 10.0 mi West 11.5 mph 20.7 mph 0.08 in Rain Light Rain
2:23 AM 37.0 °F 28.1 °F 32.0 °F 82% 29.70 in 10.0 mi West 15.0 mph 31.1 mph 0.00 in   Overcast
2:37 AM 37.0 °F 27.7 °F 32.0 °F 82% 29.71 in 10.0 mi West 16.1 mph 28.8 mph 0.00 in   Overcast
2:50 AM 35.6 °F 25.9 °F 32.0 °F 87% 29.71 in 10.0 mi West 16.1 mph 29.9 mph 0.01 in   Overcast
2:53 AM 36.0 °F 27.1 °F 32.0 °F 86% 29.74 in 10.0 mi West 13.8 mph 27.6 mph 0.01 in   Overcast
3:53 AM 34.0 °F 25.0 °F 30.0 °F 85% 29.77 in 8.0 mi West 12.7 mph 23.0 mph N/A   Overcast
4:45 AM 32.0 °F 19.8 °F 27.0 °F 82% 29.74 in 8.0 mi West 20.7 mph 31.1 mph 0.00 in   Overcast
4:53 AM 32.0 °F 23.6 °F 27.0 °F 82% 29.78 in 9.0 mi West 10.4 mph 31.1 mph 0.00 in   Overcast
5:32 AM 32.0 °F 23.0 °F 27.0 °F 82% 29.74 in 9.0 mi West 11.5 mph 20.7 mph N/A   Overcast
5:40 AM 32.0 °F 24.8 °F 27.0 °F 82% 29.74 in 8.0 mi West 8.1 mph - N/A   Overcast
5:53 AM 32.0 °F 24.8 °F 27.0 °F 82% 29.79 in 8.0 mi West 8.1 mph 20.7 mph N/A   Overcast
6:53 AM 32.0 °F 26.4 °F 28.0 °F 85% 29.79 in 3.0 mi Variable 5.8 mph - 0.00 in Snow Light Snow
7:02 AM 32.0 °F 26.4 °F 28.0 °F 85% 29.74 in 2.5 mi Variable 5.8 mph - 0.00 in Snow Light Snow
7:13 AM 32.0 °F 25.6 °F 28.0 °F 85% 29.74 in 4.0 mi West 6.9 mph - 0.00 in Snow Light Snow
7:33 AM 32.0 °F 24.2 °F 28.0 °F 85% 29.74 in 2.5 mi WSW 9.2 mph 17.3 mph 0.00 in Snow Light Snow
7:44 AM 32.0 °F 24.2 °F 28.0 °F 85% 29.74 in 2.5 mi WSW 9.2 mph 19.6 mph 0.00 in Snow Light Snow
7:53 AM 32.0 °F 24.8 °F 28.0 °F 85% 29.79 in 1.5 mi WSW 8.1 mph 19.6 mph 0.00 in Snow Light Snow
8:01 AM 32.0 °F 24.8 °F 28.0 °F 85% 29.74 in 0.5 mi WSW 8.1 mph - 0.00 in Fog , Snow Snow
8:13 AM 32.0 °F 24.2 °F 28.9 °F 88% 29.75 in 0.2 mi West 9.2 mph - 0.01 in Fog , Snow Heavy Snow
8:26 AM 32.0 °F 21.6 °F 27.0 °F 82% 29.75 in 1.0 mi West 15.0 mph 27.6 mph 0.02 in Snow Light Snow
8:29 AM 32.0 °F 22.5 °F 27.0 °F 82% 29.75 in 2.0 mi West 12.7 mph 25.3 mph 0.02 in Snow Light Snow
8:37 AM 32.0 °F 21.6 °F 27.0 °F 82% 29.75 in 5.0 mi West 15.0 mph 26.5 mph 0.02 in Snow Light Snow
8:53 AM 32.0 °F 20.1 °F 26.1 °F 79% 29.80 in 8.0 mi West 19.6 mph 27.6 mph 0.02 in   Overcast
9:53 AM 32.0 °F 22.1 °F 25.0 °F 75% 29.82 in 8.0 mi West 13.8 mph 24.2 mph 0.00 in   Overcast
10:42 AM 30.9 °F 20.2 °F 24.1 °F 76% 29.78 in 1.8 mi West 15.0 mph 23.0 mph 0.00 in Snow Light Snow
10:53 AM 30.0 °F 19.1 °F 25.0 °F 82% 29.83 in 0.5 mi West 15.0 mph 25.3 mph 0.00 in Snow Snow
11:20 AM 30.0 °F 19.5 °F 26.1 °F 85% 29.79 in 0.5 mi West 13.8 mph 24.2 mph 0.00 in Fog , Snow Snow
11:28 AM 30.0 °F 19.5 °F 25.0 °F 82% 29.79 in 0.8 mi West 13.8 mph 23.0 mph 0.00 in Snow Light Snow
11:35 AM 30.0 °F 20.5 °F 25.0 °F 82% 29.79 in 0.5 mi West 11.5 mph 21.9 mph 0.00 in Snow Snow
11:53 AM 30.0 °F 20.0 °F 25.0 °F 82% 29.84 in 1.0 mi West 12.7 mph 25.3 mph 0.00 in Snow Light Snow
12:27 PM 30.0 °F 19.5 °F 25.0 °F 82% 29.80 in 0.8 mi West 13.8 mph 21.9 mph 0.01 in Snow Light Snow
12:40 PM 30.0 °F 20.5 °F 24.1 °F 79% 29.80 in 1.0 mi West 11.5 mph 28.8 mph 0.01 in Snow Light Snow
12:47 PM 30.2 °F 18.9 °F 23.0 °F 75% 29.80 in 2.0 mi West 16.1 mph 25.3 mph 0.01 in Snow Light Snow
12:51 PM 30.2 °F 19.8 °F 23.0 °F 75% 29.80 in 1.8 mi West 13.8 mph 24.2 mph 0.01 in Snow Light Snow
12:53 PM 30.0 °F 21.1 °F 23.0 °F 75% 29.85 in 1.8 mi West 10.4 mph 24.2 mph 0.01 in Snow Light Snow
1:11 PM 30.0 °F 19.5 °F 23.0 °F 75% 29.80 in 2.0 mi West 13.8 mph 24.2 mph 0.00 in Snow Light Snow
1:22 PM 30.0 °F 18.7 °F 21.9 °F 72% 29.80 in 3.0 mi West 16.1 mph 31.1 mph 0.00 in Snow Light Snow
1:53 PM 30.9 °F 20.2 °F 23.0 °F 72% 29.84 in 2.5 mi West 15.0 mph 26.5 mph 0.00 in Snow Light Snow
2:13 PM 30.0 °F 20.0 °F 23.0 °F 75% 29.80 in 1.5 mi West 12.7 mph 29.9 mph 0.00 in Snow Light Snow
2:45 PM 30.0 °F 20.0 °F 23.0 °F 75% 29.80 in 2.5 mi West 12.7 mph 21.9 mph 0.00 in Snow Light Snow
2:53 PM 30.0 °F 19.5 °F 21.9 °F 72% 29.86 in 1.8 mi West 13.8 mph 26.5 mph 0.00 in Snow Light Snow
3:19 PM 28.9 °F 19.8 °F 23.0 °F 78% 29.81 in 0.8 mi West 10.4 mph 26.5 mph 0.00 in Snow Light Snow
3:25 PM 28.0 °F 17.0 °F 24.1 °F 85% 29.81 in 0.2 mi West 13.8 mph 24.2 mph 0.00 in Fog , Snow Snow
3:32 PM 28.9 °F 17.7 °F 24.1 °F 82% 29.81 in 0.5 mi West 15.0 mph 24.2 mph 0.00 in Snow Snow
3:45 PM 30.0 °F 20.0 °F 23.0 °F 75% 29.81 in 1.0 mi West 12.7 mph 21.9 mph 0.00 in Snow Light Snow
3:50 PM 30.2 °F 19.3 °F 23.0 °F 75% 29.81 in 3.0 mi West 15.0 mph 23.0 mph 0.00 in Snow Light Snow
3:53 PM 30.0 °F 19.5 °F 23.0 °F 75% 29.87 in 4.0 mi West 13.8 mph 23.0 mph 0.00 in Snow Light Snow
4:15 PM 28.9 °F 18.6 °F 21.0 °F 72% 29.82 in 2.0 mi West 12.7 mph 24.2 mph 0.00 in Snow Light Snow
4:23 PM 28.9 °F 18.2 °F 21.9 °F 75% 29.82 in 1.5 mi West 13.8 mph 20.7 mph 0.00 in Snow Light Snow
4:38 PM 28.9 °F 16.5 °F 23.0 °F 78% 29.83 in 0.8 mi West 18.4 mph 28.8 mph 0.00 in Snow Light Snow
4:50 PM 28.4 °F 18.0 °F 23.0 °F 80% 29.83 in 1.2 mi West 12.7 mph 23.0 mph 0.00 in Snow Light Snow
4:53 PM 28.9 °F 18.2 °F 23.0 °F 78% 29.88 in 1.2 mi West 13.8 mph 23.0 mph 0.00 in Snow Light Snow
5:04 PM 28.9 °F 21.1 °F 23.0 °F 78% 29.83 in 0.8 mi West 8.1 mph - 0.00 in Snow Light Snow
5:12 PM 28.9 °F 17.7 °F 23.0 °F 78% 29.83 in 1.5 mi West 15.0 mph 20.7 mph 0.00 in Snow Light Snow
5:17 PM 28.9 °F 19.8 °F 21.9 °F 75% 29.83 in 3.0 mi West 10.4 mph 20.7 mph 0.00 in Snow Light Snow
5:32 PM 28.9 °F 19.2 °F 21.9 °F 75% 29.84 in 2.0 mi West 11.5 mph 19.6 mph 0.00 in Snow Light Snow
5:49 PM 28.4 °F 18.0 °F 21.2 °F 74% 29.84 in 2.5 mi West 12.7 mph 23.0 mph 0.00 in Snow Light Snow
5:53 PM 28.9 °F 18.2 °F 21.9 °F 75% 29.90 in 1.8 mi West 13.8 mph 23.0 mph 0.00 in Snow Light Snow
6:00 PM 28.0 °F 17.5 °F 23.0 °F 81% 29.85 in 0.8 mi West 12.7 mph 21.9 mph 0.00 in Snow Light Snow
6:26 PM 28.0 °F 18.1 °F 24.1 °F 85% 29.86 in 0.8 mi West 11.5 mph - 0.00 in Snow Light Snow
6:48 PM 28.4 °F 20.4 °F 23.0 °F 80% 29.86 in 1.0 mi West 8.1 mph 19.6 mph 0.00 in Snow Light Snow
6:51 PM 28.4 °F 19.1 °F 23.0 °F 80% 29.86 in 1.2 mi WSW 10.4 mph - 0.00 in Snow Light Snow
6:53 PM 28.0 °F 19.3 °F 23.0 °F 81% 29.92 in 1.2 mi West 9.2 mph - 0.00 in Snow Light Snow
7:02 PM 28.0 °F 17.5 °F 23.0 °F 81% 29.87 in 1.8 mi West 12.7 mph 21.9 mph 0.00 in Snow Light Snow
7:08 PM 28.0 °F 18.1 °F 23.0 °F 81% 29.87 in 2.0 mi West 11.5 mph 19.6 mph 0.00 in Snow Light Snow
7:14 PM 28.0 °F 19.3 °F 23.0 °F 81% 29.87 in 1.8 mi West 9.2 mph 19.6 mph 0.00 in Snow Light Snow
7:34 PM 28.0 °F 18.6 °F 21.9 °F 78% 29.87 in 2.0 mi West 10.4 mph 21.9 mph 0.00 in Snow Light Snow
7:40 PM 28.0 °F 18.6 °F 21.9 °F 78% 29.87 in 3.0 mi West 10.4 mph 21.9 mph 0.00 in Snow Light Snow
7:53 PM 28.0 °F 17.0 °F 21.9 °F 78% 29.94 in 5.0 mi West 13.8 mph 19.6 mph 0.00 in Snow Light Snow
8:53 PM 28.0 °F 18.6 °F 21.0 °F 75% 29.96 in 8.0 mi West 10.4 mph 20.7 mph 0.00 in Snow Light Snow
9:53 PM 28.0 °F 19.3 °F 21.0 °F 75% 29.97 in 10.0 mi WNW 9.2 mph - 0.00 in   Overcast
10:16 PM 28.0 °F 19.3 °F 21.0 °F 75% 29.91 in 7.0 mi West 9.2 mph - 0.00 in Snow Light Snow
10:53 PM 28.0 °F 20.0 °F 19.9 °F 72% 29.98 in 6.0 mi West 8.1 mph - 0.00 in Snow Light Snow
11:07 PM 28.0 °F 19.3 °F 19.9 °F 72% 29.91 in 9.0 mi WNW 9.2 mph - 0.00 in   Overcast
11:53 PM 28.0 °F 18.1 °F 19.0 °F 69% 29.98 in 10.0 mi West 11.5 mph 24.2 mph 0.00 in   Overcast